Location: Zengebe
(1.4833°N, 32.5167°E)
Time: 23:11:03
(UTC+00:00)

Sich 1 - Pass Details

Date: 07 June 2020
Orbit: 595 x 625 km, 82.5° (Epoch: 10 July)

Event Time Altitude Azimuth Distance (km) Brightness Sun altitude
Exits shadow 01:50:24 42° 130° (SE) 874 3.9 -26.4°
Maximum altitude 01:51:14 48° 94° (E) 793 3.8 -26.3°
Drops below altitude 10° 01:55:24 10° 19° (NNE) 1,944 6.2 -25.3°
Sets 01:57:38 0° 14° (NNE) 2,839 7.0 -24.8°
